Location: Cahas Mountain Overlook
(37.0833°N, 80.1000°W)
Time: 11:25:09
(UTC-04:00)

Vanguard 1 Rocket - Pass Details

Date: 12 February 2026
Orbit: 653 x 4214 km, 34.3° (Epoch: 15 March)

Event Time Altitude Azimuth Distance (km) Brightness Sun altitude
Rises 18:35:51 0° 278° (W) 6,344 13.3 -8.3°
Reaches altitude 10° 18:39:20 10° 277° (W) 5,698 12.9 -9.0°
Maximum altitude 18:59:15 75° 197° (SSW) 4,081 10.7 -12.9°
Drops below altitude 10° 19:25:25 10° 117° (ESE) 7,136 11.4 -18.1°
Enters shadow 19:25:46 - 117° (ESE) 7,189 11.4 -18.2°
